Location: Napier
(39.4830°S, 176.9170°E)
Time: 14:47:05
(UTC+12:00)

Aureole 1 Rocket - Pass Details

Date: 15 August 2020
Orbit: 378 x 1379 km, 73.9° (Epoch: 23 September)

Event Time Altitude Azimuth Distance (km) Brightness Sun altitude
Rises 18:46:13 0° 207° (SSW) 2,499 6.5 -14.4°
Reaches altitude 10° 18:48:09 10° 213° (SSW) 1,706 5.7 -14.8°
Maximum altitude 18:51:44 46° 287° (WNW) 776 4.0 -15.4°
Drops below altitude 10° 18:56:14 10° 359° (N) 2,147 5.9 -16.3°
Sets 18:58:57 0° 5° (N) 3,237 6.7 -16.8°
